Location: Usti nad Labem
(50.6670°N, 14.0330°E)
Time: 12:53:14
(UTC+02:00)

ISS - Visible Passes

Search period start: 23 May 2017 00:00
Search period end: 02 June 2017 00:00
Orbit: 402 x 409 km, 51.6° (Epoch: 23 May)

Date Brightness Start Highest point End Pass type
(mag) Time Alt. Az. Time Alt. Az. Time Alt. Az.
23 May -3.8 01:15:13 18° W 01:17:33 78° N 01:20:52 10° E visible
23 May -3.9 02:50:51 10° WNW 02:54:10 87° NNE 02:57:27 10° ESE visible
23 May -2.9 22:46:24 10° SSW 22:49:15 28° SSE 22:52:07 10° E visible
24 May -3.9 00:22:12 10° WSW 00:25:31 88° SSE 00:28:48 10° ENE visible
24 May -3.7 01:58:48 10° W 02:02:06 76° N 02:05:23 10° E visible
24 May -3.6 03:35:22 10° W 03:38:33 46° SSW 03:41:42 10° SE visible
24 May -2.3 21:55:04 10° S 21:57:24 18° SE 21:59:45 10° E visible
24 May -4.0 23:30:12 10° WSW 23:33:29 68° SSE 23:36:46 10° ENE visible
25 May -3.6 01:06:43 10° W 01:10:01 72° N 01:13:19 10° E visible
25 May -3.9 02:43:16 10° WNW 02:46:33 67° SSW 02:49:49 10° ESE visible
25 May -2.3 04:20:20 10° W 04:22:37 18° SW 04:24:53 10° S visible
25 May -3.6 22:38:17 10° SW 22:41:29 48° SSE 22:44:41 10° E visible
26 May -3.7 00:14:38 10° W 00:17:56 75° N 00:21:13 10° E visible
26 May -4.0 01:51:13 10° WNW 01:54:31 87° SSW 01:57:48 10° ESE visible
26 May -2.9 03:27:55 10° W 03:30:45 27° SSW 03:33:34 10° SSE visible
26 May -3.1 21:46:32 10° SW 21:49:31 32° SSE 21:52:31 10° E visible
26 May -3.8 23:22:31 10° W 23:25:49 86° NNW 23:29:08 10° ENE visible
27 May -3.8 00:59:07 10° W 01:02:26 79° N 01:05:44 10° E visible
27 May -3.5 02:35:42 10° W 02:38:49 40° SSW 02:41:55 10° SE visible
27 May -3.9 22:30:27 10° WSW 22:33:45 76° SSE 22:37:03 10° ENE visible
28 May -3.6 00:07:01 10° W 00:10:19 73° N 00:13:36 10° E visible
28 May -3.9 01:43:34 10° WNW 01:46:49 59° SSW 01:47:20 50° SSE visible
28 May -3.6 23:14:53 10° W 23:18:11 73° N 23:21:29 10° E visible
29 May -4.0 00:51:26 10° WNW 00:54:45 80° SSW 00:55:53 38° ESE visible
29 May -1.4 02:28:15 10° W 02:28:29 11° W 02:28:29 11° W visible
29 May -3.7 22:22:44 10° W 22:26:03 81° N 22:29:21 10° ENE visible
29 May -3.8 23:59:20 10° WNW 00:02:39 83° NNE 00:04:58 18° E visible
30 May -2.3 01:35:56 10° W 01:37:34 23° WSW 01:37:34 23° WSW visible
30 May -3.6 23:07:11 10° W 23:10:30 74° N 23:13:47 10° E visible
31 May -3.7 00:43:44 10° W 00:46:51 51° SSW 00:46:51 51° SSW visible
31 May -3.6 22:15:01 10° W 22:18:19 72° N 22:21:37 10° E visible
31 May -3.9 23:51:34 10° WNW 23:54:52 72° SSW 23:56:12 32° ESE visible
01 Jun -1.3 01:28:30 10° W 01:28:50 12° W 01:28:50 12° W visible
01 Jun -3.9 22:59:25 10° WNW 23:02:44 89° NE 23:05:38 13° ESE visible
